Year,Month,Day,Hour,Minute,Value (Times are PST for temperature in C)
2006,08,04,00,00,15.10
2006,08,04,00,01,15.10
2006,08,04,00,02,15.00
2006,08,04,00,03,15.00
2006,08,04,00,04,15.00
2006,08,04,00,05,15.00
2006,08,04,00,06,15.00
2006,08,04,00,07,14.90
2006,08,04,00,08,14.90
2006,08,04,00,09,14.90
2006,08,04,00,10,14.80
2006,08,04,00,11,14.80
2006,08,04,00,12,14.80
2006,08,04,00,13,14.80
2006,08,04,00,14,14.80
2006,08,04,00,15,14.70
2006,08,04,00,16,14.70
2006,08,04,00,17,14.70
2006,08,04,00,18,14.60
2006,08,04,00,19,14.60
2006,08,04,00,20,14.60
2006,08,04,00,21,14.60
2006,08,04,00,22,14.50
2006,08,04,00,23,14.50
2006,08,04,00,24,14.50
2006,08,04,00,25,14.50
2006,08,04,00,26,14.40
2006,08,04,00,27,14.40
2006,08,04,00,28,14.40
2006,08,04,00,29,14.30
2006,08,04,00,30,14.30
2006,08,04,00,31,14.30
2006,08,04,00,32,14.20
2006,08,04,00,33,14.20
2006,08,04,00,34,14.20
2006,08,04,00,35,14.20
2006,08,04,00,36,14.20
2006,08,04,00,37,14.20
2006,08,04,00,38,14.20
2006,08,04,00,39,14.20
2006,08,04,00,40,14.20
2006,08,04,00,41,14.20
2006,08,04,00,42,14.20
2006,08,04,00,43,14.10
2006,08,04,00,44,14.10
2006,08,04,00,45,14.10
2006,08,04,00,46,14.10
2006,08,04,00,47,14.10
2006,08,04,00,48,14.00
2006,08,04,00,49,14.00
2006,08,04,00,50,14.00
2006,08,04,00,51,14.00
2006,08,04,00,52,13.90
2006,08,04,00,53,13.90
2006,08,04,00,54,13.90
2006,08,04,00,55,13.80
2006,08,04,00,56,13.80
2006,08,04,00,57,13.80
2006,08,04,00,58,13.70
2006,08,04,00,59,13.70
2006,08,04,01,00,13.70
2006,08,04,01,01,13.70
2006,08,04,01,02,13.70
2006,08,04,01,03,13.60
2006,08,04,01,04,13.60
2006,08,04,01,05,13.60
2006,08,04,01,06,13.60
2006,08,04,01,07,13.60
2006,08,04,01,08,13.50
2006,08,04,01,09,13.50
2006,08,04,01,10,13.50
2006,08,04,01,11,13.40
2006,08,04,01,12,13.40
2006,08,04,01,13,13.40
2006,08,04,01,14,13.30
2006,08,04,01,15,13.30
2006,08,04,01,16,13.30
2006,08,04,01,17,13.30
2006,08,04,01,18,13.30
2006,08,04,01,19,13.30
2006,08,04,01,20,13.30
2006,08,04,01,21,13.30
2006,08,04,01,22,13.20
2006,08,04,01,23,13.20
2006,08,04,01,24,13.20
2006,08,04,01,25,13.20
2006,08,04,01,26,13.20
2006,08,04,01,27,13.10
2006,08,04,01,28,13.10
2006,08,04,01,29,13.10
2006,08,04,01,30,13.10
2006,08,04,01,31,13.10
2006,08,04,01,32,13.00
2006,08,04,01,33,13.00
2006,08,04,01,34,13.00
2006,08,04,01,35,13.00
2006,08,04,01,36,13.00
2006,08,04,01,37,13.00
2006,08,04,01,38,12.90
2006,08,04,01,39,12.90
2006,08,04,01,40,12.90
2006,08,04,01,41,12.90
2006,08,04,01,42,12.90
2006,08,04,01,43,12.90
2006,08,04,01,44,12.90
2006,08,04,01,45,12.90
2006,08,04,01,46,12.90
2006,08,04,01,47,12.90
2006,08,04,01,48,12.80
2006,08,04,01,49,12.80
2006,08,04,01,50,12.80
2006,08,04,01,51,12.80
2006,08,04,01,52,12.80
2006,08,04,01,53,12.80
2006,08,04,01,54,12.80
2006,08,04,01,55,12.80
2006,08,04,01,56,12.80
2006,08,04,01,57,12.80
2006,08,04,01,58,12.80
2006,08,04,01,59,12.70
2006,08,04,02,00,12.70
2006,08,04,02,01,12.70
2006,08,04,02,02,12.70
2006,08,04,02,03,12.60
2006,08,04,02,04,12.60
2006,08,04,02,05,12.60
2006,08,04,02,06,12.60
2006,08,04,02,07,12.60
2006,08,04,02,08,12.50
2006,08,04,02,09,12.50
2006,08,04,02,10,12.50
2006,08,04,02,11,12.50
2006,08,04,02,12,12.50
2006,08,04,02,13,12.50
2006,08,04,02,14,12.40
2006,08,04,02,15,12.40
2006,08,04,02,16,12.40
2006,08,04,02,17,12.40
2006,08,04,02,18,12.40
2006,08,04,02,19,12.40
2006,08,04,02,20,12.40
2006,08,04,02,21,12.30
2006,08,04,02,22,12.30
2006,08,04,02,23,12.30
2006,08,04,02,24,12.30
2006,08,04,02,25,12.30
2006,08,04,02,26,12.30
2006,08,04,02,27,12.30
2006,08,04,02,28,12.30
2006,08,04,02,29,12.30
2006,08,04,02,30,12.30
2006,08,04,02,31,12.30
2006,08,04,02,32,12.30
2006,08,04,02,33,12.30
2006,08,04,02,34,12.30
2006,08,04,02,35,12.30
2006,08,04,02,36,12.30
2006,08,04,02,37,12.30
2006,08,04,02,38,12.20
2006,08,04,02,39,12.20
2006,08,04,02,40,12.20
2006,08,04,02,41,12.20
2006,08,04,02,42,12.20
2006,08,04,02,43,12.20
2006,08,04,02,44,12.20
2006,08,04,02,45,12.20
2006,08,04,02,46,12.10
2006,08,04,02,47,12.10
2006,08,04,02,48,12.10
2006,08,04,02,49,12.10
2006,08,04,02,50,12.10
2006,08,04,02,51,12.00
2006,08,04,02,52,12.00
2006,08,04,02,53,12.00
2006,08,04,02,54,12.00
2006,08,04,02,55,12.00
2006,08,04,02,56,12.00
2006,08,04,02,57,12.00
2006,08,04,02,58,12.00
2006,08,04,02,59,12.00
2006,08,04,03,00,12.00
2006,08,04,03,01,12.00
2006,08,04,03,02,12.00
2006,08,04,03,03,11.90
2006,08,04,03,04,11.90
2006,08,04,03,05,11.90
2006,08,04,03,06,11.90
2006,08,04,03,07,11.90
2006,08,04,03,08,11.90
2006,08,04,03,09,11.90
2006,08,04,03,10,11.90
2006,08,04,03,11,11.80
2006,08,04,03,12,11.80
2006,08,04,03,13,11.80
2006,08,04,03,14,11.80
2006,08,04,03,15,11.80
2006,08,04,03,16,11.80
2006,08,04,03,17,11.80
2006,08,04,03,18,11.80
2006,08,04,03,19,11.80
2006,08,04,03,20,11.80
2006,08,04,03,21,11.80
2006,08,04,03,22,11.80
2006,08,04,03,23,11.80
2006,08,04,03,24,11.80
2006,08,04,03,25,11.80
2006,08,04,03,26,11.80
2006,08,04,03,27,11.80
2006,08,04,03,28,11.80
2006,08,04,03,29,11.70
2006,08,04,03,30,11.70
2006,08,04,03,31,11.70
2006,08,04,03,32,11.70
2006,08,04,03,33,11.70
2006,08,04,03,34,11.70
2006,08,04,03,35,11.60
2006,08,04,03,36,11.60
2006,08,04,03,37,11.60
2006,08,04,03,38,11.60
2006,08,04,03,39,11.60
2006,08,04,03,40,11.60
2006,08,04,03,41,11.60
2006,08,04,03,42,11.60
2006,08,04,03,43,11.60
2006,08,04,03,44,11.50
2006,08,04,03,45,11.40
2006,08,04,03,46,11.40
2006,08,04,03,47,11.40
2006,08,04,03,48,11.40
2006,08,04,03,49,11.40
2006,08,04,03,50,11.40
2006,08,04,03,51,11.40
2006,08,04,03,52,11.40
2006,08,04,03,53,11.40
2006,08,04,03,54,11.40
2006,08,04,03,55,11.40
2006,08,04,03,56,11.40
2006,08,04,03,57,11.30
2006,08,04,03,58,11.30
2006,08,04,03,59,11.30
2006,08,04,04,00,11.30
2006,08,04,04,01,11.30
2006,08,04,04,02,11.30
2006,08,04,04,03,11.30
2006,08,04,04,04,11.20
2006,08,04,04,05,11.20
2006,08,04,04,06,11.20
2006,08,04,04,07,11.20
2006,08,04,04,08,11.20
2006,08,04,04,09,11.20
2006,08,04,04,10,11.20
2006,08,04,04,11,11.10
2006,08,04,04,12,11.10
2006,08,04,04,13,11.10
2006,08,04,04,14,11.10
2006,08,04,04,15,11.10
2006,08,04,04,16,11.10
2006,08,04,04,17,11.10
2006,08,04,04,18,11.10
2006,08,04,04,19,11.10
2006,08,04,04,20,11.10
2006,08,04,04,21,11.10
2006,08,04,04,22,11.10
2006,08,04,04,23,11.10
2006,08,04,04,24,11.10
2006,08,04,04,25,11.10
2006,08,04,04,26,11.00
2006,08,04,04,27,10.90
2006,08,04,04,28,10.90
2006,08,04,04,29,10.90
2006,08,04,04,30,10.90
2006,08,04,04,31,10.90
2006,08,04,04,32,10.90
2006,08,04,04,33,10.90
2006,08,04,04,34,10.90
2006,08,04,04,35,10.90
2006,08,04,04,36,10.90
2006,08,04,04,37,10.90
2006,08,04,04,38,10.90
2006,08,04,04,39,10.90
2006,08,04,04,40,10.80
2006,08,04,04,41,10.80
2006,08,04,04,42,10.80
2006,08,04,04,43,10.80
2006,08,04,04,44,10.80
2006,08,04,04,45,10.80
2006,08,04,04,46,10.80
2006,08,04,04,47,10.70
2006,08,04,04,48,10.70
2006,08,04,04,49,10.70
2006,08,04,04,50,10.70
2006,08,04,04,51,10.70
2006,08,04,04,52,10.70
2006,08,04,04,53,10.60
2006,08,04,04,54,10.60
2006,08,04,04,55,10.60
2006,08,04,04,56,10.60
2006,08,04,04,57,10.60
2006,08,04,04,58,10.70
2006,08,04,04,59,10.70
2006,08,04,05,00,10.70
2006,08,04,05,01,10.70
2006,08,04,05,02,10.80
2006,08,04,05,03,10.80
2006,08,04,05,04,10.80
2006,08,04,05,05,10.90
2006,08,04,05,06,10.90
2006,08,04,05,07,11.10
2006,08,04,05,08,11.10
2006,08,04,05,09,11.20
2006,08,04,05,10,11.30
2006,08,04,05,11,11.40
2006,08,04,05,12,11.40
2006,08,04,05,13,11.40
2006,08,04,05,14,11.50
2006,08,04,05,15,11.60
2006,08,04,05,16,11.60
2006,08,04,05,17,11.60
2006,08,04,05,18,11.60
2006,08,04,05,19,11.60
2006,08,04,05,20,11.60
2006,08,04,05,21,11.60
2006,08,04,05,22,11.60
2006,08,04,05,23,11.60
2006,08,04,05,24,11.60
2006,08,04,05,25,11.50
2006,08,04,05,26,11.40
2006,08,04,05,27,11.40
2006,08,04,05,28,11.40
2006,08,04,05,29,11.40
2006,08,04,05,30,11.30
2006,08,04,05,31,11.30
2006,08,04,05,32,11.20
2006,08,04,05,33,11.20
2006,08,04,05,34,11.20
2006,08,04,05,35,11.10
2006,08,04,05,36,11.10
2006,08,04,05,37,11.10
2006,08,04,05,38,11.10
2006,08,04,05,39,11.10
2006,08,04,05,40,11.10
2006,08,04,05,41,11.00
2006,08,04,05,42,10.90
2006,08,04,05,43,10.90
2006,08,04,05,44,10.90
2006,08,04,05,45,10.90
2006,08,04,05,46,10.90
2006,08,04,05,47,10.80
2006,08,04,05,48,10.80
2006,08,04,05,49,10.80
2006,08,04,05,50,10.70
2006,08,04,05,51,10.70
2006,08,04,05,52,10.70
2006,08,04,05,53,10.70
2006,08,04,05,54,10.70
2006,08,04,05,55,10.60
2006,08,04,05,56,10.60
2006,08,04,05,57,10.60
2006,08,04,05,58,10.60
2006,08,04,05,59,10.60
2006,08,04,06,00,10.60
2006,08,04,06,01,10.60
2006,08,04,06,02,10.60
2006,08,04,06,03,10.60
2006,08,04,06,04,10.60
2006,08,04,06,05,10.60
2006,08,04,06,06,10.60
2006,08,04,06,07,10.60
2006,08,04,06,08,10.60
2006,08,04,06,09,10.60
2006,08,04,06,10,10.60
2006,08,04,06,11,10.60
2006,08,04,06,12,10.50
2006,08,04,06,13,10.40
2006,08,04,06,14,10.40
2006,08,04,06,15,10.40
2006,08,04,06,16,10.40
2006,08,04,06,17,10.40
2006,08,04,06,18,10.40
2006,08,04,06,19,10.40
2006,08,04,06,20,10.40
2006,08,04,06,21,10.40
2006,08,04,06,22,10.40
2006,08,04,06,23,10.40
2006,08,04,06,24,10.40
2006,08,04,06,25,10.40
2006,08,04,06,26,10.40
2006,08,04,06,27,10.40
2006,08,04,06,28,10.40
2006,08,04,06,29,10.40
2006,08,04,06,30,10.40
2006,08,04,06,31,10.40
2006,08,04,06,32,10.40
2006,08,04,06,33,10.40
2006,08,04,06,34,10.60
2006,08,04,06,35,10.60
2006,08,04,06,36,10.60
2006,08,04,06,37,10.60
2006,08,04,06,38,10.60
2006,08,04,06,39,10.60
2006,08,04,06,40,10.60
2006,08,04,06,41,10.70
2006,08,04,06,42,10.70
2006,08,04,06,43,10.80
2006,08,04,06,44,10.80
2006,08,04,06,45,10.90
2006,08,04,06,46,10.90
2006,08,04,06,47,10.90
2006,08,04,06,48,10.90
2006,08,04,06,49,11.00
2006,08,04,06,50,11.10
2006,08,04,06,51,11.10
2006,08,04,06,52,11.10
2006,08,04,06,53,11.20
2006,08,04,06,54,11.20
2006,08,04,06,55,11.20
2006,08,04,06,56,11.30
2006,08,04,06,57,11.30
2006,08,04,06,58,11.40
2006,08,04,06,59,11.40
2006,08,04,07,00,11.40
2006,08,04,07,01,11.40
2006,08,04,07,02,11.60
2006,08,04,07,03,11.60
2006,08,04,07,04,11.60
2006,08,04,07,05,11.60
2006,08,04,07,06,11.60
2006,08,04,07,07,11.70
2006,08,04,07,08,11.80
2006,08,04,07,09,11.80
2006,08,04,07,10,11.80
2006,08,04,07,11,11.90
2006,08,04,07,12,11.90
2006,08,04,07,13,12.00
2006,08,04,07,14,12.00
2006,08,04,07,15,12.10
2006,08,04,07,16,12.20
2006,08,04,07,17,12.20
2006,08,04,07,18,12.30
2006,08,04,07,19,12.30
2006,08,04,07,20,12.40
2006,08,04,07,21,12.50
2006,08,04,07,22,12.60
2006,08,04,07,23,12.60
2006,08,04,07,24,12.70
2006,08,04,07,25,12.80
2006,08,04,07,26,12.80
2006,08,04,07,27,12.90
2006,08,04,07,28,13.00
2006,08,04,07,29,13.10
2006,08,04,07,30,13.10
2006,08,04,07,31,13.20
2006,08,04,07,32,13.30
2006,08,04,07,33,13.30
2006,08,04,07,34,13.40
2006,08,04,07,35,13.50
2006,08,04,07,36,13.50
2006,08,04,07,37,13.60
2006,08,04,07,38,13.60
2006,08,04,07,39,13.70
2006,08,04,07,40,13.70
2006,08,04,07,41,13.80
2006,08,04,07,42,13.90
2006,08,04,07,43,14.00
2006,08,04,07,44,14.00
2006,08,04,07,45,14.20
2006,08,04,07,46,14.30
2006,08,04,07,47,14.50
2006,08,04,07,48,14.70
2006,08,04,07,49,14.80
2006,08,04,07,50,14.90
2006,08,04,07,51,15.10
2006,08,04,07,52,15.20
2006,08,04,07,53,15.30
2006,08,04,07,54,15.30
2006,08,04,07,55,15.50
2006,08,04,07,56,15.50
2006,08,04,07,57,15.60
2006,08,04,07,58,15.70
2006,08,04,07,59,15.80
2006,08,04,08,00,15.80
2006,08,04,08,01,15.90
2006,08,04,08,02,16.00
2006,08,04,08,03,16.10
2006,08,04,08,04,16.10
2006,08,04,08,05,16.10
2006,08,04,08,06,16.10
2006,08,04,08,07,16.10
2006,08,04,08,08,16.10
2006,08,04,08,09,15.90
2006,08,04,08,10,15.90
2006,08,04,08,11,15.90
2006,08,04,08,12,15.90
2006,08,04,08,13,15.90
2006,08,04,08,14,15.90
2006,08,04,08,15,15.90
2006,08,04,08,16,15.90
2006,08,04,08,17,15.90
2006,08,04,08,18,16.00
2006,08,04,08,19,16.10
2006,08,04,08,20,16.10
2006,08,04,08,21,16.10
2006,08,04,08,22,16.20
2006,08,04,08,23,16.20
2006,08,04,08,24,16.30
2006,08,04,08,25,16.30
2006,08,04,08,26,16.40
2006,08,04,08,27,16.40
2006,08,04,08,28,16.50
2006,08,04,08,29,16.60
2006,08,04,08,30,16.60
2006,08,04,08,31,16.60
2006,08,04,08,32,16.60
2006,08,04,08,33,16.60
2006,08,04,08,34,16.60
2006,08,04,08,35,16.60
2006,08,04,08,36,16.60
2006,08,04,08,37,16.60
2006,08,04,08,38,16.60
2006,08,04,08,39,16.60
2006,08,04,08,40,16.50
2006,08,04,08,41,16.40
2006,08,04,08,42,16.40
2006,08,04,08,43,16.40
2006,08,04,08,44,16.30
2006,08,04,08,45,16.30
2006,08,04,08,46,16.30
2006,08,04,08,47,16.40
2006,08,04,08,48,16.30
2006,08,04,08,49,16.20
2006,08,04,08,50,16.10
2006,08,04,08,51,15.90
2006,08,04,08,52,15.80
2006,08,04,08,53,15.70
2006,08,04,08,54,15.70
2006,08,04,08,55,15.70
2006,08,04,08,56,15.80
2006,08,04,08,57,15.80
2006,08,04,08,58,15.90
2006,08,04,08,59,15.90
2006,08,04,09,00,15.80
2006,08,04,09,01,15.90
2006,08,04,09,02,15.90
2006,08,04,09,03,16.00
2006,08,04,09,04,16.10
2006,08,04,09,05,16.20
2006,08,04,09,06,16.20
2006,08,04,09,07,16.30
2006,08,04,09,08,16.30
2006,08,04,09,09,16.20
2006,08,04,09,10,16.10
2006,08,04,09,11,16.10
2006,08,04,09,12,16.10
2006,08,04,09,13,16.10
2006,08,04,09,14,16.10
2006,08,04,09,15,16.10
2006,08,04,09,16,16.10
2006,08,04,09,17,16.20
2006,08,04,09,18,16.30
2006,08,04,09,19,16.40
2006,08,04,09,20,16.40
2006,08,04,09,21,16.40
2006,08,04,09,22,16.40
2006,08,04,09,23,16.40
2006,08,04,09,24,16.30
2006,08,04,09,25,16.20
2006,08,04,09,26,16.00
2006,08,04,09,27,16.00
2006,08,04,09,28,16.10
2006,08,04,09,29,16.10
2006,08,04,09,30,16.20
2006,08,04,09,31,16.30
2006,08,04,09,32,16.40
2006,08,04,09,33,16.30
2006,08,04,09,34,16.30
2006,08,04,09,35,16.30
2006,08,04,09,36,16.40
2006,08,04,09,37,16.50
2006,08,04,09,38,16.60
2006,08,04,09,39,16.60
2006,08,04,09,40,16.70
2006,08,04,09,41,16.60
2006,08,04,09,42,16.50
2006,08,04,09,43,16.40
2006,08,04,09,44,16.50
2006,08,04,09,45,16.60
2006,08,04,09,46,16.60
2006,08,04,09,47,16.70
2006,08,04,09,48,16.70
2006,08,04,09,49,16.60
2006,08,04,09,50,16.70
2006,08,04,09,51,16.70
2006,08,04,09,52,16.70
2006,08,04,09,53,16.70
2006,08,04,09,54,16.50
2006,08,04,09,55,16.40
2006,08,04,09,56,16.40
2006,08,04,09,57,16.30
2006,08,04,09,58,16.30
2006,08,04,09,59,16.20
2006,08,04,10,00,16.20
2006,08,04,10,01,16.10
2006,08,04,10,02,16.00
2006,08,04,10,03,15.90
2006,08,04,10,04,16.00
2006,08,04,10,05,16.10
2006,08,04,10,06,16.20
2006,08,04,10,07,16.30
2006,08,04,10,08,16.30
2006,08,04,10,09,16.50
2006,08,04,10,10,16.60
2006,08,04,10,11,16.60
2006,08,04,10,12,16.50
2006,08,04,10,13,16.40
2006,08,04,10,14,16.40
2006,08,04,10,15,16.40
2006,08,04,10,16,16.40
2006,08,04,10,17,16.40
2006,08,04,10,18,16.30
2006,08,04,10,19,16.30
2006,08,04,10,20,16.20
2006,08,04,10,21,16.10
2006,08,04,10,22,15.90
2006,08,04,10,23,16.00
2006,08,04,10,24,16.10
2006,08,04,10,25,16.10
2006,08,04,10,26,16.20
2006,08,04,10,27,16.30
2006,08,04,10,28,16.40
2006,08,04,10,29,16.50
2006,08,04,10,30,16.60
2006,08,04,10,31,16.60
2006,08,04,10,32,16.60
2006,08,04,10,33,16.60
2006,08,04,10,34,16.70
2006,08,04,10,35,16.80
2006,08,04,10,36,16.80
2006,08,04,10,37,16.60
2006,08,04,10,38,16.60
2006,08,04,10,39,16.60
2006,08,04,10,40,16.70
2006,08,04,10,41,16.80
2006,08,04,10,42,16.70
2006,08,04,10,43,16.70
2006,08,04,10,44,16.50
2006,08,04,10,45,16.40
2006,08,04,10,46,16.40
2006,08,04,10,47,16.40
2006,08,04,10,48,16.50
2006,08,04,10,49,16.70
2006,08,04,10,50,16.80
2006,08,04,10,51,16.90
2006,08,04,10,52,16.90
2006,08,04,10,53,16.90
2006,08,04,10,54,17.00
2006,08,04,10,55,17.00
2006,08,04,10,56,17.00
2006,08,04,10,57,17.00
2006,08,04,10,58,17.00
2006,08,04,10,59,17.00
2006,08,04,11,00,17.00
2006,08,04,11,01,17.10
2006,08,04,11,02,17.10
2006,08,04,11,03,17.10
2006,08,04,11,04,17.20
2006,08,04,11,05,17.30
2006,08,04,11,06,17.30
2006,08,04,11,07,17.40
2006,08,04,11,08,17.50
2006,08,04,11,09,17.60
2006,08,04,11,10,17.70
2006,08,04,11,11,17.70
2006,08,04,11,12,17.60
2006,08,04,11,13,17.60
2006,08,04,11,14,17.60
2006,08,04,11,15,17.60
2006,08,04,11,16,17.70
2006,08,04,11,17,17.80
2006,08,04,11,18,17.90
2006,08,04,11,19,17.90
2006,08,04,11,20,18.00
2006,08,04,11,21,18.10
2006,08,04,11,22,18.20
2006,08,04,11,23,18.20
2006,08,04,11,24,18.20
2006,08,04,11,25,18.20
2006,08,04,11,26,18.30
2006,08,04,11,27,18.40
2006,08,04,11,28,18.50
2006,08,04,11,29,18.60
2006,08,04,11,30,18.50
2006,08,04,11,31,18.40
2006,08,04,11,32,18.20
2006,08,04,11,33,18.20
2006,08,04,11,34,18.30
2006,08,04,11,35,18.40
2006,08,04,11,36,18.50
2006,08,04,11,37,18.60
2006,08,04,11,38,18.50
2006,08,04,11,39,18.40
2006,08,04,11,40,18.40
2006,08,04,11,41,18.30
2006,08,04,11,42,18.30
2006,08,04,11,43,18.40
2006,08,04,11,44,18.40
2006,08,04,11,45,18.20
2006,08,04,11,46,18.20
2006,08,04,11,47,18.00
2006,08,04,11,48,17.80
2006,08,04,11,49,17.70
2006,08,04,11,50,17.60
2006,08,04,11,51,17.70
2006,08,04,11,52,17.80
2006,08,04,11,53,17.90
2006,08,04,11,54,17.90
2006,08,04,11,55,17.80
2006,08,04,11,56,17.80
2006,08,04,11,57,17.90
2006,08,04,11,58,17.90
2006,08,04,11,59,17.90
2006,08,04,12,00,17.90
2006,08,04,12,01,17.80
2006,08,04,12,02,17.80
2006,08,04,12,03,17.60
2006,08,04,12,04,17.50
2006,08,04,12,05,17.60
2006,08,04,12,06,17.70
2006,08,04,12,07,17.80
2006,08,04,12,08,17.80
2006,08,04,12,09,17.70
2006,08,04,12,10,17.70
2006,08,04,12,11,17.70
2006,08,04,12,12,17.70
2006,08,04,12,13,17.70
2006,08,04,12,14,17.70
2006,08,04,12,15,17.70
2006,08,04,12,16,17.70
2006,08,04,12,17,17.80
2006,08,04,12,18,17.80
2006,08,04,12,19,17.80
2006,08,04,12,20,17.70
2006,08,04,12,21,17.50
2006,08,04,12,22,17.40
2006,08,04,12,23,17.30
2006,08,04,12,24,17.50
2006,08,04,12,25,17.60
2006,08,04,12,26,17.80
2006,08,04,12,27,17.90
2006,08,04,12,28,18.20
2006,08,04,12,29,18.40
2006,08,04,12,30,18.40
2006,08,04,12,31,18.50
2006,08,04,12,32,18.50
2006,08,04,12,33,18.60
2006,08,04,12,34,18.70
2006,08,04,12,35,18.70
2006,08,04,12,36,18.80
2006,08,04,12,37,18.90
2006,08,04,12,38,18.90
2006,08,04,12,39,18.60
2006,08,04,12,40,18.50
2006,08,04,12,41,18.40
2006,08,04,12,42,18.20
2006,08,04,12,43,18.10
2006,08,04,12,44,18.10
2006,08,04,12,45,18.00
2006,08,04,12,46,18.10
2006,08,04,12,47,18.10
2006,08,04,12,48,18.10
2006,08,04,12,49,18.10
2006,08,04,12,50,18.30
2006,08,04,12,51,18.40
2006,08,04,12,52,18.50
2006,08,04,12,53,18.60
2006,08,04,12,54,18.70
2006,08,04,12,55,18.70
2006,08,04,12,56,18.60
2006,08,04,12,57,18.50
2006,08,04,12,58,18.40
2006,08,04,12,59,18.30
2006,08,04,13,00,18.10
2006,08,04,13,01,17.90
2006,08,04,13,02,17.90
2006,08,04,13,03,17.90
2006,08,04,13,04,18.00
2006,08,04,13,05,18.20
2006,08,04,13,06,18.30
2006,08,04,13,07,18.30
2006,08,04,13,08,18.10
2006,08,04,13,09,17.80
2006,08,04,13,10,17.80
2006,08,04,13,11,17.90
2006,08,04,13,12,17.90
2006,08,04,13,13,17.90
2006,08,04,13,14,17.80
2006,08,04,13,15,17.80
2006,08,04,13,16,17.80
2006,08,04,13,17,17.80
2006,08,04,13,18,17.90
2006,08,04,13,19,17.80
2006,08,04,13,20,17.80
2006,08,04,13,21,17.90
2006,08,04,13,22,17.90
2006,08,04,13,23,17.70
2006,08,04,13,24,17.70
2006,08,04,13,25,17.70
2006,08,04,13,26,17.80
2006,08,04,13,27,17.80
2006,08,04,13,28,17.90
2006,08,04,13,29,17.90
2006,08,04,13,30,17.90
2006,08,04,13,31,17.90
2006,08,04,13,32,18.10
2006,08,04,13,33,18.20
2006,08,04,13,34,18.40
2006,08,04,13,35,18.40
2006,08,04,13,36,18.30
2006,08,04,13,37,18.40
2006,08,04,13,38,18.60
2006,08,04,13,39,18.70
2006,08,04,13,40,18.70
2006,08,04,13,41,18.70
2006,08,04,13,42,18.70
2006,08,04,13,43,18.70
2006,08,04,13,44,18.70
2006,08,04,13,45,18.60
2006,08,04,13,46,18.50
2006,08,04,13,47,18.30
2006,08,04,13,48,18.40
2006,08,04,13,49,18.50
2006,08,04,13,50,18.50
2006,08,04,13,51,18.40
2006,08,04,13,52,18.30
2006,08,04,13,53,18.30
2006,08,04,13,54,18.20
2006,08,04,13,55,18.20
2006,08,04,13,56,18.20
2006,08,04,13,57,18.20
2006,08,04,13,58,18.10
2006,08,04,13,59,18.10
2006,08,04,14,00,18.10
2006,08,04,14,01,18.20
2006,08,04,14,02,18.20
2006,08,04,14,03,18.20
2006,08,04,14,04,18.20
2006,08,04,14,05,18.30
2006,08,04,14,06,18.30
2006,08,04,14,07,18.30
2006,08,04,14,08,18.30
2006,08,04,14,09,18.30
2006,08,04,14,10,18.40
2006,08,04,14,11,18.50
2006,08,04,14,12,18.60
2006,08,04,14,13,18.70
2006,08,04,14,14,18.80
2006,08,04,14,15,18.90
2006,08,04,14,16,18.90
2006,08,04,14,17,18.80
2006,08,04,14,18,18.80
2006,08,04,14,19,18.70
2006,08,04,14,20,18.60
2006,08,04,14,21,18.50
2006,08,04,14,22,18.50
2006,08,04,14,23,18.50
2006,08,04,14,24,18.50
2006,08,04,14,25,18.50
2006,08,04,14,26,18.40
2006,08,04,14,27,18.40
2006,08,04,14,28,18.50
2006,08,04,14,29,18.60
2006,08,04,14,30,18.60
2006,08,04,14,31,18.60
2006,08,04,14,32,18.70
2006,08,04,14,33,18.60
2006,08,04,14,34,18.60
2006,08,04,14,35,18.50
2006,08,04,14,36,18.50
2006,08,04,14,37,18.60
2006,08,04,14,38,18.60
2006,08,04,14,39,18.70
2006,08,04,14,40,18.70
2006,08,04,14,41,18.70
2006,08,04,14,42,18.60
2006,08,04,14,43,18.70
2006,08,04,14,44,18.70
2006,08,04,14,45,18.70
2006,08,04,14,46,18.80
2006,08,04,14,47,18.90
2006,08,04,14,48,18.90
2006,08,04,14,49,19.00
2006,08,04,14,50,19.00
2006,08,04,14,51,18.80
2006,08,04,14,52,18.70
2006,08,04,14,53,18.70
2006,08,04,14,54,18.70
2006,08,04,14,55,18.60
2006,08,04,14,56,18.50
2006,08,04,14,57,18.50
2006,08,04,14,58,18.60
2006,08,04,14,59,18.70
2006,08,04,15,00,18.80
2006,08,04,15,01,18.80
2006,08,04,15,02,18.90
2006,08,04,15,03,18.90
2006,08,04,15,04,19.00
2006,08,04,15,05,19.10
2006,08,04,15,06,19.10
2006,08,04,15,07,19.10
2006,08,04,15,08,19.00
2006,08,04,15,09,18.90
2006,08,04,15,10,18.90
2006,08,04,15,11,18.80
2006,08,04,15,12,18.70
2006,08,04,15,13,18.70
2006,08,04,15,14,18.90
2006,08,04,15,15,18.90
2006,08,04,15,16,18.80
2006,08,04,15,17,18.60
2006,08,04,15,18,18.60
2006,08,04,15,19,18.50
2006,08,04,15,20,18.50
2006,08,04,15,21,18.60
2006,08,04,15,22,18.70
2006,08,04,15,23,18.90
2006,08,04,15,24,18.90
2006,08,04,15,25,18.90
2006,08,04,15,26,19.00
2006,08,04,15,27,19.10
2006,08,04,15,28,19.30
2006,08,04,15,29,19.40
2006,08,04,15,30,19.40
2006,08,04,15,31,19.50
2006,08,04,15,32,19.50
2006,08,04,15,33,19.60
2006,08,04,15,34,19.80
2006,08,04,15,35,19.90
2006,08,04,15,36,19.90
2006,08,04,15,37,19.80
2006,08,04,15,38,19.80
2006,08,04,15,39,19.80
2006,08,04,15,40,19.80
2006,08,04,15,41,19.70
2006,08,04,15,42,19.70
2006,08,04,15,43,19.80
2006,08,04,15,44,19.90
2006,08,04,15,45,19.90
2006,08,04,15,46,20.10
2006,08,04,15,47,20.20
2006,08,04,15,48,20.20
2006,08,04,15,49,20.30
2006,08,04,15,50,20.30
2006,08,04,15,51,20.30
2006,08,04,15,52,20.20
2006,08,04,15,53,20.20
2006,08,04,15,54,20.00
2006,08,04,15,55,19.90
2006,08,04,15,56,19.80
2006,08,04,15,57,19.70
2006,08,04,15,58,19.70
2006,08,04,15,59,19.70
2006,08,04,16,00,19.70
2006,08,04,16,01,19.70
2006,08,04,16,02,19.70
2006,08,04,16,03,19.70
2006,08,04,16,04,19.70
2006,08,04,16,05,19.60
2006,08,04,16,06,19.60
2006,08,04,16,07,19.60
2006,08,04,16,08,19.50
2006,08,04,16,09,19.60
2006,08,04,16,10,19.70
2006,08,04,16,11,19.70
2006,08,04,16,12,19.70
2006,08,04,16,13,19.70
2006,08,04,16,14,19.60
2006,08,04,16,15,19.60
2006,08,04,16,16,19.70
2006,08,04,16,17,19.80
2006,08,04,16,18,19.80
2006,08,04,16,19,19.80
2006,08,04,16,20,19.70
2006,08,04,16,21,19.70
2006,08,04,16,22,19.90
2006,08,04,16,23,19.90
2006,08,04,16,24,20.20
2006,08,04,16,25,20.20
2006,08,04,16,26,20.20
2006,08,04,16,27,20.20
2006,08,04,16,28,20.20
2006,08,04,16,29,20.20
2006,08,04,16,30,20.30
2006,08,04,16,31,20.40
2006,08,04,16,32,20.40
2006,08,04,16,33,20.50
2006,08,04,16,34,20.40
2006,08,04,16,35,20.30
2006,08,04,16,36,20.20
2006,08,04,16,37,20.30
2006,08,04,16,38,20.40
2006,08,04,16,39,20.30
2006,08,04,16,40,20.30
2006,08,04,16,41,20.20
2006,08,04,16,42,20.40
2006,08,04,16,43,20.50
2006,08,04,16,44,20.50
2006,08,04,16,45,20.60
2006,08,04,16,46,20.60
2006,08,04,16,47,20.60
2006,08,04,16,48,20.70
2006,08,04,16,49,20.70
2006,08,04,16,50,20.70
2006,08,04,16,51,20.70
2006,08,04,16,52,20.70
2006,08,04,16,53,20.70
2006,08,04,16,54,20.70
2006,08,04,16,55,20.70
2006,08,04,16,56,20.60
2006,08,04,16,57,20.60
2006,08,04,16,58,20.70
2006,08,04,16,59,20.60
2006,08,04,17,00,20.60
2006,08,04,17,01,20.50
2006,08,04,17,02,20.50
2006,08,04,17,03,20.30
2006,08,04,17,04,20.30
2006,08,04,17,05,20.30
2006,08,04,17,06,20.30
2006,08,04,17,07,20.40
2006,08,04,17,08,20.40
2006,08,04,17,09,20.40
2006,08,04,17,10,20.30
2006,08,04,17,11,20.30
2006,08,04,17,12,20.30
2006,08,04,17,13,20.30
2006,08,04,17,14,20.40
2006,08,04,17,15,20.50
2006,08,04,17,16,20.50
2006,08,04,17,17,20.60
2006,08,04,17,18,20.60
2006,08,04,17,19,20.60